User: anonymous   Login
Location: Seasalter
(51.3333°N, 1.0167°E)
Time: 16:47:34
(UTC+00:00)
Language:

Cosmos 372 Rocket - Orbit

View from above orbital plane
View from above orbital plane
View from above satellite
View from above satellite

Ground track
Ground track

The orbit data is extracted from the following two-line orbital elements,

1  4589U 70086B   24062.49897419  .00000281  00000-0  93016-4 0  9996
2  4589  74.0584 104.7954 0019375  59.6214 300.6854 14.42297489800406
Epoch (UTC): 02 March 2024 11:58:31
Eccentricity: 0.0019375
inclination: 74.0584°
perigee height: 737 km
apogee height: 765 km
right ascension of ascending node: 104.7954°
argument of perigee: 59.6214°
revolutions per day: 14.42297489
mean anomaly at epoch: 300.6854°
orbit number at epoch: 80040

The dashed part of the orbit path shows where the satellite is in the earth's shadow,  

DLR